GW5291 Weather Reports


time (UTC)temp
F
wind
direction
speed
knots
gust
knots
rain 1hr
in
rain 24hr
in
rain mn
in
humidity
%
barometer
mb
20260506025703 65 59 1.7 6.1 0.00 0.00 0.00 75 1009.9
20260506025200 65 342 1.7 4.3 0.00 0.00 0.00 74 1009.6
20260506024657 66 59 0.9 3.5 0.00 0.00 0.00 74 1009.7
20260506024153 66 60 0.0 5.2 0.00 0.00 0.00 74 1009.5
20260506023649 67 40 1.7 7.0 0.00 0.00 0.00 73 1009.3
20260506023147 67 27 3.5 4.3 0.00 0.00 0.00 73 1009.1
20260506022644 68 359 0.9 3.5 0.00 0.00 0.00 73 1008.7
20260506022141 68 71 0.0 6.1 0.00 0.00 0.00 73 1008.6
20260506021639 68 325 2.6 3.5 0.00 0.00 0.00 73 1008.7
20260506021136 68 50 2.6 3.5 0.00 0.00 0.00 73 1008.5
20260506020633 69 31 2.6 3.5 0.00 0.00 0.00 72 1008.2
20260506020131 69 42 2.6 3.5 0.00 0.00 0.00 72 1008.3
20260506015628 69 321 0.0 2.6 0.00 0.00 0.00 71 1008.3
20260506015125 69 45 1.7 4.3 0.00 0.00 0.00 71 1008.0
20260506014623 70 41 0.9 3.5 0.00 0.00 0.00 71 1008.1
20260506014118 70 26 3.5 3.5 0.00 0.00 0.00 71 1008.0
20260506013617 70 28 0.0 3.5 0.00 0.00 0.00 71 1007.5
20260506013113 71 36 0.9 2.6 0.00 0.00 0.00 71 1007.5
20260506012609 71 65 0.0 2.6 0.00 0.00 0.00 71 1007.6
20260506012106 71 58 0.0 1.7 0.00 0.00 0.00 70 1007.5
20260506011604 71 83 0.9 3.5 0.00 0.00 0.00 70 1007.5
20260506011100 71 13 0.0 1.7 0.00 0.00 0.00 69 1007.3
20260506010600 72 91 0.0 1.7 0.00 0.00 0.00 68 1007.2
20260506010056 72 27 0.0 3.5 0.00 0.00 0.00 68 1007.1
20260506005553 72 321 0.0 1.7 0.00 0.00 0.00 68 1007.7
20260506005049 72 36 0.0 1.7 0.00 0.00 0.00 68 1007.0
20260506004546 73 42 1.7 3.5 0.00 0.00 0.00 68 1006.5
20260506004043 73 35 1.7 3.5 0.00 0.00 0.00 67 1006.8
20260506003539 73 41 1.7 2.6 0.00 0.00 0.00 67 1006.7
20260506003036 73 23 0.0 1.7 0.00 0.00 0.00 67 1006.7
20260506002532 73 37 0.0 2.6 0.00 0.00 0.00 66 1006.4
20260506002027 73 51 0.9 2.6 0.00 0.00 0.00 65 1006.2
20260506001524 74 37 2.6 3.5 0.00 0.00 0.00 65 1006.4
20260506001021 74 89 0.0 3.5 0.00 0.00 0.00 65 1006.4
20260506000519 74 4 0.9 5.2 0.00 0.00 0.00 64 1006.3
20260506000016 75 292 0.0 5.2 0.00 0.00 0.00 64 1006.3
20260505235514 75 6 1.7 2.6 0.00 0.00 0.00 65 1006.6
20260505235010 76 33 0.9 5.2 0.00 0.00 0.00 63 1006.3
20260505234508 77 312 2.6 3.5 0.00 0.00 0.00 62 1006.1
20260505234004 77 6 0.9 4.3 0.00 0.00 0.00 62 1006.2
20260505233502 77 7 1.7 3.5 0.00 0.00 0.00 62 1006.3
20260505232959 78 15 1.7 3.5 0.00 0.00 0.00 61 1006.0
20260505232457 78 26 2.6 2.6 0.00 0.00 0.00 60 1005.9
20260505231954 79 347 0.9 3.5 0.00 0.00 0.00 60 1006.0
20260505231451 79 25 1.7 4.3 0.00 0.00 0.00 59 1006.0
20260505230949 80 356 1.7 3.5 0.00 0.00 0.00 58 1006.1
20260505230447 80 30 3.5 4.3 0.00 0.00 0.00 58 1005.9
20260505225943 81 8 1.7 2.6 0.00 0.00 0.00 57 1005.7
20260505225440 82 317 1.7 3.5 0.00 0.00 0.00 57 1005.6
20260505224936 83 311 3.5 3.5 0.00 0.00 0.00 56 1005.3
20260505224433 84 319 0.9 3.5 0.00 0.00 0.00 55 1005.2
20260505223930 85 306 0.0 1.7 0.00 0.00 0.00 51 1005.3
20260505223427 86 314 0.0 1.7 0.00 0.00 0.00 51 1005.2
20260505222923 87 342 0.0 0.9 0.00 0.00 0.00 49 1005.0
20260505222420 87 38 0.0 2.6 0.00 0.00 0.00 46 1004.9
20260505221916 87 269 0.0 1.7 0.00 0.00 0.00 47 1004.8
20260505221413 88 318 0.0 1.7 0.00 0.00 0.00 45 1004.8
20260505220910 89 10 1.7 2.6 0.00 0.00 0.00 45 1004.6
20260505220407 89 62 0.0 0.0 0.00 0.00 0.00 45 1004.6
20260505215905 89 269 0.0 0.9 0.00 0.00 0.00 44 1004.8
20260505215403 89 269 0.0 1.7 0.00 0.00 0.00 45 1004.8
20260505214900 89 16 1.7 2.6 0.00 0.00 0.00 43 1004.7
20260505214358 91 209 0.0 2.6 0.00 0.00 0.00 44 1004.9
20260505213855 91 288 1.7 1.7 0.00 0.00 0.00 49 1004.7
20260505213353 91 197 2.6 4.3 0.00 0.00 0.00 47 1004.6
20260505212848 92 237 1.7 4.3 0.00 0.00 0.00 47 1004.4
20260505212346 92 254 0.9 3.5 0.00 0.00 0.00 46 1004.8
20260505211841 92 89 0.0 4.3 0.00 0.00 0.00 47 1004.8
20260505211339 92 239 0.9 3.5 0.00 0.00 0.00 47 1004.9
20260505210836 92 243 0.9 5.2 0.00 0.00 0.00 46 1004.9
20260505210333 92 226 0.0 3.5 0.00 0.00 0.00 45 1005.0
20260505205829 92 308 0.0 2.6 0.00 0.00 0.00 48 1004.9
20260505205328 91 302 1.7 2.6 0.00 0.00 0.00 48 1005.1
20260505204824 91 232 0.9 4.3 0.00 0.00 0.00 48 1004.9
20260505204322 90 224 3.5 4.3 0.00 0.00 0.00 50 1005.1
20260505203819 90 202 4.3 4.3 0.00 0.00 0.00 51 1005.1
20260505203316 90 256 2.6 3.5 0.00 0.00 0.00 52 1005.2
20260505202812 89 245 2.6 7.0 0.00 0.00 0.00 53 1005.3
20260505202308 90 221 5.2 6.1 0.00 0.00 0.00 51 1005.4
20260505201805 89 209 4.3 7.0 0.00 0.00 0.00 52 1005.5
20260505201303 89 253 1.7 2.6 0.00 0.00 0.00 54 1005.4
20260505200801 89 238 3.5 9.6 0.00 0.00 0.00 53 1005.2
20260505200257 89 214 3.5 6.1 0.00 0.00 0.00 53 1005.5
20260505195752 89 217 3.5 5.2 0.00 0.00 0.00 54 1005.3
20260505195251 88 248 2.6 5.2 0.00 0.00 0.00 55 1005.6
20260505194747 88 228 2.6 5.2 0.00 0.00 0.00 55 1005.5
20260505194244 87 235 2.6 3.5 0.00 0.00 0.00 56 1005.5
20260505193739 87 229 4.3 8.7 0.00 0.00 0.00 56 1005.7
20260505193237 88 206 3.5 4.3 0.00 0.00 0.00 56 1005.7
20260505192736 88 269 1.7 5.2 0.00 0.00 0.00 56 1005.7
20260505192233 87 219 4.3 6.1 0.00 0.00 0.00 57 1005.2
20260505191731 87 221 0.9 5.2 0.00 0.00 0.00 58 1005.3
20260505191229 86 258 2.6 5.2 0.00 0.00 0.00 58 1005.6
20260505190725 86 201 2.6 5.2 0.00 0.00 0.00 59 1005.4
20260505190225 85 264 1.7 8.7 0.00 0.00 0.00 59 1005.5
20260505185722 85 212 3.5 6.1 0.00 0.00 0.00 61 1005.6
20260505185218 84 236 2.6 7.0 0.00 0.00 0.00 61 1005.4
20260505184714 84 240 1.7 9.6 0.00 0.00 0.00 61 1005.5
20260505184212 84 224 2.6 9.6 0.00 0.00 0.00 61 1005.7
20260505183708 85 203 4.3 4.3 0.00 0.00 0.00 60 1005.8
20260505183206 85 227 0.9 4.3 0.00 0.00 0.00 61 1005.7
20260505182702 84 250 1.7 7.0 0.00 0.00 0.00 60 1005.5
20260505182159 84 256 1.7 5.2 0.00 0.00 0.00 61 1005.5
20260505181656 84 228 1.7 5.2 0.00 0.00 0.00 61 1005.6
20260505181153 84 254 2.6 7.0 0.00 0.00 0.00 62 1005.6
20260505180649 84 227 3.5 4.3 0.00 0.00 0.00 62 1005.8
20260505180147 85 287 0.0 4.3 0.00 0.00 0.00 62 1005.7
20260505175642 84 255 0.9 8.7 0.00 0.00 0.00 63 1005.8
20260505175139 84 272 1.7 6.1 0.00 0.00 0.00 64 1005.5
20260505174636 83 222 0.9 5.2 0.00 0.00 0.00 65 1005.7
20260505174132 83 189 6.1 10.4 0.00 0.00 0.00 64 1005.5
20260505173629 82 220 3.5 11.3 0.00 0.00 0.00 64 1005.6
20260505173126 82 259 2.6 6.1 0.00 0.00 0.00 64 1005.7
20260505172623 82 213 4.3 7.8 0.00 0.00 0.00 65 1005.7
20260505172120 82 233 3.5 7.8 0.00 0.00 0.00 64 1005.6
20260505171614 82 213 2.6 5.2 0.00 0.00 0.00 67 1005.5
20260505171112 81 233 2.6 6.1 0.00 0.00 0.00 67 1005.8
20260505170609 81 229 3.5 7.8 0.00 0.00 0.00 67 1005.7
20260505170105 80 279 2.6 12.2 0.00 0.00 0.00 68 1005.6
20260505165600 81 290 1.7 4.3 0.00 0.00 0.00 68 1005.8
20260505165056 81 244 1.7 8.7 0.00 0.00 0.00 68 1005.8
20260505164552 80 216 3.5 6.1 0.00 0.00 0.00 68 1005.8
20260505164050 80 235 2.6 4.3 0.00 0.00 0.00 68 1005.8
20260505163548 80 215 1.7 5.2 0.00 0.00 0.00 70 1005.6
20260505163045 79 212 2.6 8.7 0.00 0.00 0.00 70 1005.5
20260505162543 79 210 2.6 7.8 0.00 0.00 0.00 71 1005.5
20260505162041 79 198 4.3 7.0 0.00 0.00 0.00 70 1005.6
20260505161537 79 233 1.7 7.8 0.00 0.00 0.00 70 1005.3
20260505161035 79 225 2.6 7.0 0.00 0.00 0.00 71 1005.3
20260505160532 79 296 0.9 11.3 0.00 0.00 0.00 71 1005.3
20260505153009 79 177 0.9 7.0 0.00 0.00 0.00 71 1005.3
20260505152506 79 207 8.7 9.6 0.00 0.00 0.00 70 1005.1
20260505152001 79 229 1.7 4.3 0.00 0.00 0.00 72 1005.1
20260505151457 77 204 1.7 10.4 0.00 0.00 0.00 74 1005.3
20260505150954 77 212 10.4 11.3 0.00 0.00 0.00 74 1005.6
20260505150452 76 249 2.6 7.0 0.00 0.00 0.00 76 1005.7
20260505140421 73 231 3.5 6.1 0.00 0.00 0.00 80 1005.4
20260505124834 71 179 0.9 5.2 0.00 0.00 0.00 84 1005.0
20260505124331 71 206 5.2 7.8 0.00 0.00 0.00 84 1005.0
20260505123827 71 204 3.5 8.7 0.00 0.00 0.00 84 1005.0
20260505123324 71 207 4.3 5.2 0.00 0.00 0.00 84 1004.9
20260505122820 71 173 0.9 4.3 0.00 0.00 0.00 84 1004.9
20260505122318 71 218 3.5 5.2 0.00 0.00 0.00 84 1004.7
20260505121814 71 217 1.7 8.7 0.00 0.00 0.00 84 1004.6
20260505121311 71 175 1.7 7.0 0.00 0.00 0.00 83 1004.8
20260505120808 71 200 3.5 8.7 0.00 0.00 0.00 83 1004.7
20260505120304 72 225 2.6 9.6 0.00 0.00 0.00 83 1004.6
20260505115802 72 219 5.2 11.3 0.00 0.00 0.00 83 1004.4
20260505115300 72 205 2.6 8.7 0.00 0.00 0.00 83 1004.5
20260505114757 72 213 4.3 7.8 0.00 0.00 0.00 82 1004.5
20260505114253 72 209 4.3 9.6 0.00 0.00 0.00 82 1004.4
20260505113750 72 213 7.8 10.4 0.00 0.00 0.00 82 1004.4
20260505113247 72 197 4.3 8.7 0.00 0.00 0.00 82 1004.5
20260505112743 72 215 3.5 7.0 0.00 0.00 0.00 82 1004.3
20260505112241 72 180 2.6 8.7 0.00 0.00 0.00 82 1004.3
20260505111740 72 206 4.3 9.6 0.00 0.00 0.00 82 1004.4
20260505111236 71 226 3.5 6.1 0.00 0.00 0.00 83 1004.3
20260505110732 71 199 5.2 9.6 0.00 0.00 0.00 83 1004.3
20260505110230 71 202 1.7 7.8 0.00 0.00 0.00 83 1004.1
20260505102205 72 210 2.6 7.0 0.00 0.00 0.00 82 1004.3
20260505101704 72 222 2.6 7.8 0.00 0.00 0.00 82 1004.5
20260505101200 72 226 2.6 7.8 0.00 0.00 0.00 82 1004.3
20260505100656 72 227 4.3 7.8 0.00 0.00 0.00 82 1004.4
20260505100153 72 227 4.3 8.7 0.00 0.00 0.00 82 1004.5
20260505095649 72 214 5.2 10.4 0.00 0.00 0.00 82 1004.3
20260505095147 72 210 3.5 7.0 0.00 0.00 0.00 82 1004.5
20260505094642 72 148 0.0 7.8 0.00 0.00 0.00 82 1004.4
20260505094139 72 255 1.7 5.2 0.00 0.00 0.00 82 1004.5
20260505093635 72 127 0.9 5.2 0.00 0.00 0.00 82 1004.4
20260505093133 72 207 0.0 9.6 0.00 0.00 0.00 81 1004.5
20260505092630 72 122 1.7 7.8 0.00 0.00 0.00 81 1004.8
20260505092129 72 199 2.6 8.7 0.00 0.00 0.00 81 1004.8
20260505091625 72 107 0.9 6.1 0.00 0.00 0.00 81 1004.7
20260505091123 72 210 7.0 7.8 0.00 0.00 0.00 82 1004.9
20260505090620 72 200 6.1 7.0 0.00 0.00 0.00 81 1004.7
20260505090119 72 227 3.5 5.2 0.00 0.00 0.00 81 1005.0
20260505085616 72 214 2.6 12.2 0.00 0.00 0.00 81 1004.9
20260505085114 72 39 0.0 7.0 0.00 0.00 0.00 81 1004.8
20260505084611 72 218 1.7 9.6 0.00 0.00 0.00 81 1004.9
20260505084110 72 229 3.5 8.7 0.00 0.00 0.00 80 1004.9
20260505083607 72 105 2.6 7.8 0.00 0.00 0.00 80 1005.1
20260505083103 72 230 1.7 7.8 0.00 0.00 0.00 80 1004.8
20260505082559 72 216 1.7 8.7 0.00 0.00 0.00 80 1005.0
20260505082056 72 189 1.7 8.7 0.00 0.00 0.00 80 1004.9
20260505081552 73 205 4.3 6.1 0.00 0.00 0.00 79 1005.0
20260505081050 73 184 1.7 4.3 0.00 0.00 0.00 79 1004.9
20260505080545 73 152 1.7 9.6 0.00 0.00 0.00 79 1004.9
20260505080043 73 222 2.6 7.8 0.00 0.00 0.00 78 1005.1
20260505075538 73 189 2.6 7.0 0.00 0.00 0.00 78 1005.2
20260505075035 73 206 7.0 9.6 0.00 0.00 0.00 78 1005.0
20260505074532 73 223 2.6 5.2 0.00 0.00 0.00 77 1005.2
20260505074030 73 244 2.6 7.8 0.00 0.00 0.00 77 1005.2
20260505073527 73 222 0.9 7.8 0.00 0.00 0.00 77 1005.3
20260505073025 73 189 1.7 7.8 0.00 0.00 0.00 76 1005.5
20260505072520 73 186 2.6 9.6 0.00 0.00 0.00 76 1005.6
20260505072017 73 205 1.7 5.2 0.00 0.00 0.00 75 1005.7
20260505071512 74 181 1.7 6.1 0.00 0.00 0.00 75 1005.7
20260505071011 74 231 2.6 9.6 0.00 0.00 0.00 75 1005.4
20260505070508 74 210 5.2 9.6 0.00 0.00 0.00 74 1005.9
20260505070004 74 217 3.5 9.6 0.00 0.00 0.00 74 1005.8
20260505065500 74 232 2.6 8.7 0.00 0.00 0.00 73 1005.9
20260505064956 74 209 6.1 9.6 0.00 0.00 0.00 73 1005.9
20260505064453 74 242 1.7 13.0 0.00 0.00 0.00 72 1006.2
20260505063952 74 218 3.5 10.4 0.00 0.00 0.00 72 1006.1
20260505063448 74 190 2.6 7.8 0.00 0.00 0.00 72 1006.1
20260505062944 74 264 2.6 5.2 0.00 0.00 0.00 72 1006.1
20260505062442 75 196 4.3 7.0 0.00 0.00 0.00 71 1006.2
20260505061938 75 202 1.7 7.8 0.00 0.00 0.00 71 1006.2
20260505061437 75 220 1.7 7.0 0.00 0.00 0.00 71 1006.1
20260505060934 75 209 5.2 7.8 0.00 0.00 0.00 70 1006.1
20260505060431 75 222 4.3 5.2 0.00 0.00 0.00 70 1006.2
20260505055927 75 141 1.7 8.7 0.00 0.00 0.00 70 1006.3
20260505055423 75 172 1.7 7.8 0.00 0.00 0.00 70 1006.0
20260505054920 75 213 4.3 8.7 0.00 0.00 0.00 70 1006.2
20260505054418 75 202 5.2 8.7 0.00 0.00 0.00 70 1006.4
20260505053916 75 188 3.5 9.6 0.00 0.00 0.00 70 1006.3
20260505053412 75 135 1.7 5.2 0.00 0.00 0.00 70 1006.3
20260505052909 75 150 1.7 4.3 0.00 0.00 0.00 70 1006.2
20260505052406 75 179 1.7 7.8 0.00 0.00 0.00 69 1006.5
20260505051903 75 197 3.5 5.2 0.00 0.00 0.00 69 1006.6
20260505051400 75 244 1.7 5.2 0.00 0.00 0.00 69 1006.6
20260505050858 75 203 2.6 4.3 0.00 0.00 0.00 69 1006.7
20260505050356 75 242 3.5 6.1 0.00 0.00 0.00 69 1006.6
20260505041324 76 180 1.7 7.8 0.00 0.00 0.00 67 1006.6
20260505040821 76 88 0.9 5.2 0.00 0.00 0.00 67 1006.6
20260505040319 76 97 1.7 7.0 0.00 0.00 0.00 67 1006.7
20260505035815 76 127 1.7 5.2 0.00 0.00 0.00 66 1006.6
20260505035311 76 242 4.3 8.7 0.00 0.00 0.00 67 1006.6
20260505034809 76 230 1.7 12.2 0.00 0.00 0.00 66 1006.6
20260505034305 76 188 3.5 7.8 0.00 0.00 0.00 66 1006.5
20260505033802 76 221 0.9 5.2 0.00 0.00 0.00 66 1006.6
20260505033259 76 198 1.7 8.7 0.00 0.00 0.00 66 1006.6
20260505032757 76 188 1.7 5.2 0.00 0.00 0.00 66 1006.7
20260505032253 76 216 5.2 8.7 0.00 0.00 0.00 66 1006.6
20260505031750 76 200 1.7 8.7 0.00 0.00 0.00 66 1007.0
20260505031246 76 132 2.6 5.2 0.00 0.00 0.00 66 1006.8
20260505030744 76 170 1.7 7.0 0.00 0.00 0.00 65 1006.8
20260505030240 76 193 0.0 5.2 0.00 0.00 0.00 65 1006.7